[[{"header":{"parameterUnit":"m.s-1","parameterCategory":1,"la1":30.2991,"la2":30.254,"lo1":-89.0895,"lo2":-89.0444,"dy":0.0017,"dx":0.0017,"nx":28,"ny":28,"refTime":"2024-05-08T21:00:00:Z","depth":0,"parameterNumber":2,"parameterNumberName":"U-component_of_WINDS"},"data":[0,0,0,0,0,0,0,0,0,0,0,0,0,0,0,0,0,0,0,0,0,0,0,0,0,0,0,0,0,0,0,0,0,0,0,0,0,0,0,0,0,0,0,0,0,0,0,0,0,0,0,0,0,0,0,0,0,0,1.882,1.8821,0,1.8981,1.8983,1.8984,1.8992,1.899,1.8988,1.8986,1.9159,1.9165,1.9172,0,0,0,0,0,0,0,0,0,0,0,0,0,1.8527,1.8533,1.882,1.8822,1.8824,1.898,1.8983,1.8985,1.8992,1.899,1.8988,1.8985,1.9157,1.9165,1.9172,0,0,0,0,0,0,0,0,0,0,0,0,0,1.8668,1.8534,1.8819,1.8846,1.885,1.898,1.8983,1.8985,1.8993,1.899,1.8987,1.8984,1.9155,1.9164,1.9173,1.929,0,0,1.9203,1.9207,0,0,0,0,0,0,0,0,1.866,1.8679,1.884,1.8844,1.8849,1.8963,1.8943,1.9088,1.8993,1.8939,1.8986,1.8983,1.9097,1.9111,1.9148,1.9298,1.9306,1.9203,1.9209,1.9213,1.9216,0,0,0,0,0,0,0,1.865,1.8672,1.8884,1.8842,1.8848,1.8853,1.887,1.8971,1.9032,1.8943,1.8944,1.8963,1.9099,1.9138,1.9152,1.9308,1.9203,1.9212,1.9218,1.9221,1.9566,1.9569,0,0,0,0,0,0,1.8634,1.8664,1.8878,1.8888,1.8745,1.886,1.8879,1.893,1.9031,1.9044,1.8965,1.8962,1.9123,1.9141,1.9158,1.9303,1.9213,1.9222,1.9228,1.9562,1.9566,1.957,0,0,0,0,0,0,1.8628,1.8653,1.8872,1.8776,1.8805,1.8868,1.8925,1.8934,1.8974,1.9047,1.9059,1.8994,1.9122,1.9144,1.9257,1.9309,1.9227,1.9235,1.9558,1.9563,1.9568,1.9592,0,0,0,0,0,0,1.8619,1.8651,1.8694,1.8777,1.881,1.8966,1.8928,1.8939,1.8989,1.8988,1.9077,1.909,1.9121,1.9243,1.9267,1.9321,1.9243,1.9554,1.9561,1.9567,1.9587,1.9598,1.9607,0,0,0,0,0,1.8609,1.8695,1.8696,1.8722,1.8864,1.8969,1.8988,1.902,1.8993,1.9039,1.9086,1.9087,1.9299,1.9254,1.9281,1.9339,1.9551,1.9559,1.9566,1.9583,1.9596,1.9606,0,0,0,0,0,0,1.8618,1.8707,1.8708,1.8823,1.8888,1.8969,1.9027,1.9032,1.9108,1.9103,1.9143,1.9163,1.9276,1.9319,1.9267,1.9459,1.9422,1.9436,1.9426,1.9439,1.9448,1.9436,1.9251,0,0,0,0,0,1.8633,1.8708,1.8782,1.8877,1.8909,1.8963,1.901,1.9029,1.9099,1.9127,1.9183,1.9253,1.9336,1.939,1.947,1.9594,1.9615,1.9647,1.9656,1.9664,1.9675,1.9747,1.9762,1.9595,1.9595,1.9595,0,0,1.8666,1.8723,1.8769,1.8881,1.8933,1.9013,1.8986,1.9071,1.9131,1.9141,1.925,1.9294,1.9375,1.9494,1.955,1.9534,1.9726,1.9674,1.9679,1.9687,1.9756,1.9772,1.9786,1.96,1.9599,1.9598,0,0,1.8766,1.8816,1.8901,1.8954,1.9033,1.9069,1.9089,1.9171,1.9199,1.9309,1.9319,1.9393,1.9534,1.9592,1.964,1.9764,1.9768,1.9789,1.984,1.9909,1.9922,1.9934,1.998,1.9996,1.98,1.9801,1.9801,0,1.8797,1.8914,1.8945,1.903,1.9081,1.9091,1.9179,1.923,1.9333,1.9369,1.9349,1.9527,1.9582,1.9716,1.9747,1.9785,1.9812,1.9779,1.9917,1.993,1.9941,1.9986,2.0003,1.9803,1.9802,1.9802,1.9802,0,1.895,1.9032,1.9092,1.9188,1.9245,1.9332,1.9378,1.9433,1.9448,1.9487,1.96,1.9667,1.9762,1.9795,1.9811,1.9932,1.992,1.9908,1.9873,1.9959,2.0001,2.0018,1.9806,1.9805,1.9804,1.9804,0,0,1.906,1.9172,1.9194,1.9239,1.9328,1.9393,1.9482,1.9572,1.9619,1.9691,1.9768,1.9887,1.9877,1.9932,1.9955,2.0016,2.0112,1.9997,2.0,2.0017,2.0252,2.0261,2.028,2.0115,2.0119,2.0121,2.0246,0,1.917,1.9325,1.9356,1.9491,1.9569,1.9581,1.9659,1.9723,1.9762,1.9836,1.988,1.9965,1.9944,1.9978,2.0038,2.0087,2.016,2.0079,2.019,2.0194,2.017,2.0302,2.0311,2.0425,2.0263,2.0265,2.0267,0,1.932,1.9392,1.9535,1.9615,1.9649,1.9718,1.9804,1.9874,1.9949,1.9974,2.0035,2.0052,2.0148,2.0107,2.0242,2.0186,2.0233,2.0265,2.0271,2.0283,2.0236,2.0319,2.0462,2.048,2.0294,2.0292,2.029,0,1.9387,1.9521,1.9624,1.9662,1.9758,1.9806,1.9849,1.9921,1.9974,2.0051,2.0087,2.0174,2.0223,2.0292,2.0333,2.03,2.0465,2.0428,2.0491,2.049,2.0525,2.0522,2.0679,2.0555,2.0554,2.0554,2.0554,0,1.9508,1.9595,1.9655,1.9719,1.9818,1.9855,1.9953,1.9996,2.006,2.0134,2.0151,2.0221,2.0271,2.0349,2.0383,2.049,2.0512,2.0536,2.0544,2.0535,2.0532,2.0567,2.0561,2.0559,2.0557,2.0557,2.0556,0,1.9599,1.9643,1.9756,1.9838,1.9861,1.993,2.0002,2.0066,2.0105,2.0199,2.0224,2.0286,2.0379,2.0427,2.0544,2.0567,2.0688,2.0691,2.0662,2.0665,2.0725,2.0719,2.0911,2.0938,2.0794,2.0796,2.0797,0,1.9673,1.974,1.9829,1.9879,1.9923,2.0003,2.0057,2.0097,2.0153,2.0245,2.0298,2.0392,2.0468,2.0617,2.0675,2.0765,2.0771,2.0832,2.0784,2.0774,2.0773,2.0769,2.0777,2.084,2.0841,2.0842,2.0843,0,1.9801,1.982,1.9895,1.998,2.0043,2.0112,2.0181,2.0221,2.0273,2.0336,2.043,2.0489,2.0608,2.0701,2.0796,2.0843,2.0853,2.0858,2.0877,2.0869,2.0849,2.0862,2.0685,2.0853,2.0852,2.0852,2.0851,2.0851,1.9887,1.9948,2.002,2.0105,2.016,2.0224,2.0288,2.0335,2.0414,2.0512,2.0532,2.0632,2.0709,2.0836,2.0887,2.0968,2.0955,2.0983,2.099,2.0997,2.1,2.0836,2.0985,2.0985,2.0985,2.0984,2.0984,0,2.0016,2.0063,2.0141,2.0235,2.0303,2.0304,2.038,2.0438,2.0525,2.0594,2.0669,2.0779,2.087,2.0935,2.1029,2.1081,2.1088,2.1105,2.1102,2.1113,2.1005,2.0979,2.1098,2.1098,2.1097,2.1097,2.1097,2.1097,2.0091,2.0195,2.0222,2.0355,2.0403,2.0499,2.0543,2.0603,2.0659,2.0779,2.0854,2.0896,2.0965,2.1064,2.1149,2.1166,2.12,2.1216,2.1234,2.1132,2.112,2.1109,2.1085,2.1223,2.1223,2.1335,2.1336,2.1337]},{"header":{"parameterUnit":"m.s-1","parameterCategory":1,"la1":30.2991,"la2":30.254,"lo1":-89.0895,"lo2":-89.0444,"dy":0.0017,"dx":0.0017,"nx":28,"ny":28,"refTime":"2024-05-08T21:00:00:Z","depth":0,"parameterNumber":3,"parameterNumberName":"V-component_of_WINDS"},"data":[0,0,0,0,0,0,0,0,0,0,0,0,0,0,0,0,0,0,0,0,0,0,0,0,0,0,0,0,0,0,0,0,0,0,0,0,0,0,0,0,0,0,0,0,0,0,0,0,0,0,0,0,0,0,0,0,0,0,1.3689,1.3691,0,1.3878,1.388,1.3882,1.3783,1.3778,1.3773,1.3768,1.3967,1.3976,1.3986,0,0,0,0,0,0,0,0,0,0,0,0,0,1.3241,1.3249,1.3689,1.3691,1.3693,1.3878,1.388,1.3883,1.3784,1.3778,1.3771,1.3766,1.3963,1.3975,1.3987,0,0,0,0,0,0,0,0,0,0,0,0,0,1.3433,1.3252,1.3688,1.3666,1.3666,1.3877,1.388,1.3884,1.3785,1.3778,1.377,1.3763,1.396,1.3974,1.3989,1.4234,0,0,1.4035,1.4041,0,0,0,0,0,0,0,0,1.3422,1.345,1.3667,1.3668,1.3668,1.3799,1.3795,1.4001,1.3787,1.374,1.3768,1.3759,1.3917,1.3935,1.3988,1.4244,1.4252,1.4036,1.4045,1.4052,1.4056,0,0,0,0,0,0,0,1.3409,1.3441,1.3764,1.367,1.3671,1.3646,1.3665,1.3834,1.3869,1.3744,1.3737,1.376,1.3916,1.3974,1.3992,1.4255,1.4036,1.4049,1.4059,1.4064,1.4712,1.472,0,0,0,0,0,0,1.3397,1.3431,1.3758,1.3769,1.3524,1.3661,1.3682,1.3765,1.3867,1.3875,1.3767,1.3755,1.3952,1.3974,1.3998,1.4286,1.4052,1.4066,1.4074,1.4704,1.4714,1.4723,0,0,0,0,0,0,1.3388,1.3427,1.375,1.3598,1.3637,1.3676,1.377,1.3773,1.3829,1.3884,1.3891,1.3819,1.3947,1.3977,1.4174,1.4291,1.4073,1.4086,1.4694,1.4707,1.4718,1.4867,0,0,0,0,0,0,1.3375,1.3424,1.3519,1.3601,1.3646,1.3924,1.3778,1.3782,1.3855,1.3842,1.3935,1.3943,1.3943,1.4152,1.4189,1.4308,1.4098,1.4684,1.47,1.4714,1.4852,1.4883,1.4909,0,0,0,0,0,1.336,1.3556,1.3524,1.3564,1.3765,1.3931,1.3956,1.3951,1.3865,1.3959,1.3993,1.394,1.4273,1.4173,1.4214,1.434,1.4676,1.4695,1.4713,1.4839,1.4877,1.4909,0,0,0,0,0,0,1.3491,1.3567,1.3532,1.3761,1.3839,1.3913,1.4033,1.3992,1.4098,1.4082,1.4071,1.4093,1.4296,1.4338,1.4225,1.4577,1.4461,1.4489,1.4543,1.4579,1.4608,1.4592,1.4111,0,0,0,0,0,1.3546,1.3673,1.3733,1.393,1.397,1.3995,1.4067,1.4055,1.4137,1.417,1.4219,1.4301,1.4422,1.4504,1.462,1.4857,1.4873,1.4963,1.4992,1.5015,1.5039,1.5159,1.5198,1.4783,1.4783,1.4783,0,0,1.3662,1.3719,1.3801,1.3957,1.4016,1.4147,1.4024,1.417,1.4266,1.4193,1.4379,1.4417,1.4508,1.4723,1.4821,1.4765,1.5156,1.5039,1.5057,1.5068,1.5182,1.5221,1.5256,1.4796,1.4793,1.4791,0,0,1.3939,1.3997,1.4163,1.4223,1.4313,1.4326,1.4366,1.4445,1.4466,1.4652,1.4597,1.4712,1.4925,1.4989,1.5049,1.5342,1.5294,1.538,1.553,1.5648,1.5681,1.571,1.5808,1.5844,1.5404,1.5404,1.5404,0,1.4072,1.4267,1.4254,1.4402,1.4469,1.4405,1.4571,1.4631,1.4755,1.4803,1.4737,1.4996,1.5053,1.5279,1.5349,1.5403,1.5444,1.5369,1.5677,1.5706,1.5733,1.5826,1.5864,1.5413,1.5412,1.5411,1.541,0,1.4423,1.4559,1.4682,1.4798,1.488,1.5037,1.5046,1.513,1.5109,1.5129,1.5316,1.5381,1.5505,1.5558,1.5543,1.578,1.5741,1.5677,1.5559,1.5782,1.5869,1.5906,1.5427,1.5423,1.5421,1.5418,0,0,1.4792,1.4893,1.4938,1.4986,1.5077,1.5181,1.5333,1.5451,1.552,1.5607,1.5731,1.5908,1.5846,1.5915,1.5904,1.6008,1.6227,1.593,1.5932,1.5978,1.6486,1.653,1.6573,1.6197,1.6204,1.6209,1.6476,0,1.507,1.5333,1.5322,1.5567,1.5688,1.5625,1.5756,1.5825,1.5846,1.5951,1.5975,1.6098,1.6011,1.605,1.615,1.618,1.6328,1.6161,1.6309,1.6314,1.6284,1.662,1.667,1.6919,1.6511,1.6517,1.6521,0,1.5432,1.5524,1.578,1.5845,1.5895,1.6013,1.6116,1.6219,1.6294,1.6301,1.6373,1.6344,1.6494,1.6373,1.6576,1.6462,1.6522,1.6544,1.6554,1.6565,1.6429,1.6636,1.6999,1.7034,1.6576,1.6572,1.6568,0,1.5668,1.5857,1.6032,1.6076,1.6158,1.6241,1.6279,1.6346,1.6415,1.6506,1.6549,1.6658,1.6716,1.6799,1.6798,1.6711,1.7002,1.6883,1.7009,1.7009,1.7072,1.7068,1.7446,1.7118,1.7117,1.7116,1.7116,0,1.5978,1.6136,1.6137,1.6245,1.6417,1.6403,1.6574,1.6604,1.6662,1.6772,1.6726,1.6831,1.6825,1.693,1.693,1.7095,1.7123,1.7131,1.7128,1.7133,1.7131,1.717,1.7151,1.7126,1.7124,1.7122,1.712,0,1.6271,1.6279,1.6464,1.6524,1.6542,1.6666,1.6717,1.6817,1.6832,1.6971,1.7003,1.7027,1.7147,1.7154,1.7295,1.7294,1.7492,1.7473,1.7466,1.7461,1.7585,1.7571,1.7999,1.8051,1.7693,1.7696,1.7699,0,1.6467,1.6585,1.6655,1.6724,1.6766,1.6879,1.6947,1.6936,1.7008,1.7097,1.7186,1.7301,1.7392,1.7587,1.7616,1.7721,1.7701,1.7843,1.7717,1.7714,1.7696,1.7688,1.7696,1.7867,1.7871,1.7874,1.7877,0,1.6812,1.6807,1.6907,1.7006,1.7088,1.7166,1.7239,1.7298,1.7295,1.7378,1.7498,1.7569,1.7708,1.7821,1.7922,1.7959,1.7917,1.7916,1.795,1.7954,1.7943,1.7945,1.7528,1.7906,1.7903,1.7901,1.79,1.7898,1.7058,1.7157,1.722,1.733,1.7382,1.7449,1.7544,1.7568,1.7667,1.7778,1.7765,1.7897,1.7962,1.8092,1.8137,1.8239,1.819,1.8241,1.8253,1.8265,1.8274,1.7929,1.8258,1.8257,1.8256,1.8256,1.8255,0,1.7396,1.7431,1.7533,1.7632,1.7718,1.7667,1.7743,1.7818,1.7934,1.7997,1.8085,1.822,1.8327,1.8362,1.8465,1.8539,1.8522,1.8566,1.8559,1.8567,1.8315,1.8273,1.8578,1.8578,1.8578,1.8578,1.8578,1.8578,1.7581,1.7744,1.7746,1.7932,1.7967,1.8094,1.814,1.82,1.8249,1.8401,1.8488,1.8509,1.8559,1.8664,1.8759,1.8766,1.8804,1.8856,1.8855,1.8619,1.8586,1.8555,1.8515,1.8866,1.8866,1.9097,1.9099,1.9101]}]]